Weather History for Cozumel, Mexico

Change the Weather History Date:

Monday, August 12, 2013

  Actual Average Record
Temperature  
Mean Temperature 76 °F -  
Max Temperature 84 °F 89 °F - ()
Min Temperature 69 °F 76 °F - ()
Cooling Degree Days 12    
Growing Degree Days 26 (Base 50)    
Moisture  
Dew Point 73 °F    
Average Humidity 88    
Maximum Humidity 100    
Minimum Humidity 66    
Precipitation  
Precipitation 0.05 in - - ()
Sea Level Pressure  
Sea Level Pressure 29.98 in    
Wind  
Wind Speed 4 mph ()    
Max Wind Speed 14 mph    
Max Gust Speed 23 mph    
Visibility 7.3 miles    
Events Thunderstorm    
T = Trace of Precipitation, MM = Missing Value Source: Averaged Metar Reports

Daily Weather History Graph

Daily Weather History Graph

Search for Another Location

Airport:

Trip Planner

Search our weather history database for the weather conditions in past years. The results will help you decide how hot, cold, wet, or windy it might be!

Date:

Astronomy

Aug. 12, 2013 Rise Set
Actual Time 6:26 AM CDT 7:18 PM CDT
Civil Twilight 6:03 AM CDT 7:41 PM CDT
Nautical Twilight 5:35 AM CDT 8:09 PM CDT
Astronomical Twilight 5:08 AM CDT 8:36 PM CDT
Moon 11:23 AM CDT (8/12) 11:07 PM CDT (8/12)
Length of Visible Light 13h 38m
Length of Day
12h 52m
Waxing Crescent, 31% of the Moon is Illuminated
Aug 12
Waxing Crescent
Aug 14
First Quarter
Aug 20
Full
Aug 28
Last Quarter
Sep 5
New

Hourly Weather History & Observations

Time (CDT) Temp. Heat Index Dew Point Humidity Pressure Visibility Wind Dir Wind Speed Gust Speed Precip Events Conditions
12:03 AM 73.4 °F - 73.4 °F 100% 30.01 in 7.0 mi East 3.5 mph - N/A   Mostly Cloudy
12:45 AM 73.4 °F - 73.4 °F 100% 30.00 in 7.0 mi Calm Calm - N/A   Mostly Cloudy
2:05 AM 71.6 °F - 71.6 °F 100% 29.98 in 7.0 mi Calm Calm - N/A   Mostly Cloudy
2:43 AM 71.6 °F - 71.6 °F 100% 29.97 in 7.0 mi Calm Calm - N/A   Scattered Clouds
3:45 AM 71.6 °F - 71.6 °F 100% 30.01 in 7.0 mi Calm Calm - N/A   Scattered Clouds
4:44 AM 71.6 °F - 71.6 °F 100% 29.97 in 7.0 mi ESE 3.5 mph - N/A   Partly Cloudy
5:47 AM 71.6 °F - 71.6 °F 100% 29.97 in 7.0 mi Calm Calm - N/A   Partly Cloudy
6:40 AM 69.8 °F - 69.8 °F 100% 29.97 in 7.0 mi Calm Calm - N/A   Scattered Clouds
7:45 AM 69.8 °F - 68.0 °F 94% 30.02 in 7.0 mi ENE 9.2 mph - N/A   Mostly Cloudy
8:48 AM 73.4 °F - 71.6 °F 94% 30.01 in 7.0 mi East 4.6 mph - N/A   Mostly Cloudy
9:42 AM 73.4 °F - 71.6 °F 94% 30.02 in 7.0 mi SE 4.6 mph - N/A   Mostly Cloudy
10:46 AM 80.6 °F 85.4 °F 73.4 °F 79% 30.00 in 7.0 mi East 10.4 mph - N/A   Mostly Cloudy
11:46 AM 82.4 °F 88.2 °F 73.4 °F 74% 30.00 in 7.0 mi East 12.7 mph - N/A   Mostly Cloudy
12:48 PM 84.2 °F 90.9 °F 73.4 °F 70% 29.99 in 8.0 mi East 11.5 mph 23.0 mph N/A   Mostly Cloudy
1:48 PM 84.2 °F 90.9 °F 73.4 °F 70% 29.98 in 8.0 mi East 10.4 mph - N/A   Mostly Cloudy
2:46 PM 84.2 °F 89.6 °F 71.6 °F 66% 29.96 in 8.0 mi ENE 11.5 mph 23.0 mph N/A   Scattered Clouds
3:47 PM 84.2 °F 90.9 °F 73.4 °F 70% 29.97 in 8.0 mi NE 13.8 mph - N/A   Scattered Clouds
4:41 PM 82.4 °F 89.5 °F 75.2 °F 79% 29.94 in 8.0 mi ENE 11.5 mph - N/A   Scattered Clouds
5:46 PM 82.4 °F 89.5 °F 75.2 °F 79% 29.94 in 8.0 mi ENE 10.4 mph - N/A   Mostly Cloudy
6:54 PM 78.8 °F - 73.4 °F 83% 29.93 in 8.0 mi ENE 8.1 mph - N/A   Scattered Clouds
7:51 PM 78.8 °F - 73.4 °F 83% 29.94 in 7.0 mi ENE 6.9 mph - N/A   Mostly Cloudy
8:43 PM 77.0 °F - 75.2 °F 94% 29.97 in 7.0 mi East 3.5 mph - N/A   Partly Cloudy
9:45 PM 75.2 °F - 73.4 °F 94% 30.01 in 7.0 mi Calm Calm - N/A   Partly Cloudy
10:53 PM 75.2 °F - 73.4 °F 94% 30.00 in 7.0 mi NE 9.2 mph - N/A Thunderstorm Thunderstorm